Lapse_Rate
-1.3 -1.9 -2.6 -3.0 -2.7 -2.1 -1.6 -0.5 5.5 2.7 -0.3 2.7 3.3 6.5 6.5 6.5 6.2 5.9 6.3 6.3 6.5 6.5 6.5 6.5 6.5 6.5 6.5 6.0 5.8 6.5 6.5 6.5 6.5 6.5 6.5 6.5 6.5 6.5 6.5 6.5 6.5 6.5 6.5 6.5
-1.4 -2.1 -2.7 -3.0 -2.6 -2.4 -2.1 2.0 1.8 1.8 -0.3 6.5 6.5 6.2 6.5 6.0 6.4 6.3 6.5 6.5 6.4 6.4 6.5 6.5 6.5 6.5 6.1 5.7 6.0 6.5 6.5 6.5 6.5 6.5 6.5 6.5 6.5 6.5 6.5 6.5 6.5 6.5 6.5 6.5
-1.7 -2.1 -2.6 -2.9 -2.6 -2.2 -1.9 0.3 6.5 1.1 0.2 2.0 6.0 6.5 6.5 6.5 6.3 6.2 6.2 6.4 6.0 6.5 6.5 6.5 6.5 6.5 6.4 5.8 6.0 6.6 5.8 6.5 6.5 6.5 6.5 6.5 6.5 6.5 6.5 6.5 6.5 6.5 6.5 6.5
-1.6 -2.2 -2.6 -2.4 -2.0 -1.6 -1.4 -0.9 3.5 4.1 6.5 5.4 5.3 5.7 6.5 6.5 6.5 5.9 5.7 6.5 6.5 6.5 6.5 6.5 6.5 6.5 6.5 6.2 6.2 5.8 6.4 6.5 6.5 6.5 6.5 6.5 6.5 6.5 6.5 6.5 6.5 6.5 6.5 6.5
-1.6 -2.2 -2.5 -2.2 -0.7 1.1 -1.9 0.7 2.4 1.1 3.5 4.8 5.6 6.1 6.5 6.5 6.5 6.4 6.5 6.5 6.5 6.5 6.5 6.5 6.5 6.5 6.5 6.5 6.1 6.5 6.4 6.5 6.5 6.5 6.5 6.5 6.5 6.5 6.5 6.5 6.5 6.5 6.5 6.5
-1.6 -2.0 -2.5 -2.3 -1.0 1.9 -0.7 -0.2 0.9 0.7 3.9 5.3 6.4 6.5 6.5 6.5 6.2 6.1 6.3 6.1 6.5 6.5 6.5 5.6 5.5 5.5 5.7 5.8 6.5 6.5 6.5 6.5 6.5 6.5 6.5 6.5 6.5 6.5 6.5 6.5 6.5 6.5 6.5 6.5
-1.4 -1.9 -2.4 -2.3 -1.6 -0.7 -3.4 -2.3 -0.8 0.5 6.5 5.9 6.4 6.3 6.0 6.4 6.2 6.4 6.3 5.6 6.3 6.4 5.6 4.1 4.6 6.4 6.4 6.0 6.2 6.0 6.5 6.5 6.5 6.5 6.5 6.5 6.5 6.5 6.5 6.5 6.5 6.5 6.5 6.5
-1.4 -1.7 -2.1 -1.6 -0.2 -0.1 -4.3 -3.7 -0.6 0.6 6.5 5.1 5.7 5.9 6.0 5.7 5.6 6.2 6.3 6.5 6.7 4.2 5.0 6.5 6.5 6.5 6.5 6.5 6.5 6.5 6.1 6.5 6.5 6.5 6.5 6.5 6.5 6.5 6.5 6.5 6.5 6.5 6.5 6.4
-1.2 -1.4 -1.4 -0.5 0.7 1.3 -4.0 -3.6 -3.2 -0.3 1.8 6.0 5.6 5.4 5.4 6.4 6.5 6.0 6.3 5.8 4.5 4.0 5.3 6.5 6.5 6.5 6.5 6.5 6.5 6.5 6.5 6.5 6.5 6.5 6.5 6.5 6.5 6.5 7.2 6.8 6.5 6.7 6.8 6.6
-0.7 -1.0 -0.9 0.1 1.0 1.6 -1.8 -2.3 -2.2 -1.1 1.9 4.4 4.3 5.0 6.1 5.0 4.3 6.3 5.1 5.3 4.5 4.0 6.5 6.5 6.5 6.5 6.5 6.5 6.5 6.5 6.5 6.5 6.5 6.5 6.5 6.5 6.5 6.9 6.8 6.5 6.5 6.9 7.0 6.7
-0.2 -0.5 0.1 0.8 2.0 2.6 -0.9 -0.8 -1.0 -2.4 2.6 4.2 4.1 4.1 4.4 4.3 2.9 6.4 4.1 4.8 4.3 5.4 6.5 6.5 6.5 6.5 6.5 6.5 6.5 6.5 6.5 6.5 6.5 6.5 6.5 6.5 7.0 6.7 6.5 6.7 7.1 7.3 7.2 6.8
0.1 0.1 0.4 0.4 1.9 2.5 1.7 -1.4 1.7 0.8 1.9 5.3 4.4 5.0 5.0 4.8 5.0 3.4 3.3 5.0 5.3 4.5 6.5 6.5 6.5 6.5 6.5 6.5 6.5 6.5 6.5 6.5 6.5 6.5 6.5 6.4 6.7 7.0 7.5 7.4 6.9 7.3 7.2 5.0
0.7 1.1 1.1 0.2 1.5 2.6 0.7 -2.2 -1.0 -0.3 4.7 3.3 2.9 5.3 5.6 6.1 4.2 3.3 3.1 3.8 5.4 5.4 3.8 2.5 6.2 6.5 6.5 6.5 6.5 6.5 6.5 6.2 6.5 6.5 6.5 6.8 6.2 6.2 6.9 6.6 6.8 6.6 5.7 4.2
1.3 1.4 1.6 1.4 1.7 1.8 1.0 -2.4 -0.8 -0.2 2.1 3.0 5.2 6.7 5.9 6.6 4.9 4.5 4.5 5.4 4.9 4.5 3.5 3.8 6.3 6.5 5.3 6.5 6.3 6.5 6.2 6.1 6.5 6.5 6.6 6.6 6.4 5.8 6.0 5.8 5.2 5.1 4.4 3.8
1.8 1.8 2.7 2.7 2.2 1.7 1.0 -0.0 -0.2 0.4 1.5 4.2 4.6 5.8 7.3 6.4 5.8 6.2 4.9 4.5 4.2 3.5 3.8 4.9 6.5 4.7 5.7 4.9 6.1 6.5 6.9 6.5 6.5 6.5 6.9 6.9 6.7 6.3 5.8 5.9 5.3 4.8 5.1 3.8
2.2 2.0 3.1 4.0 3.8 3.2 0.4 0.4 1.2 1.0 -1.4 2.6 5.9 4.6 7.1 7.0 7.1 5.5 5.4 4.7 4.0 4.4 4.6 4.7 4.5 5.3 5.3 6.5 6.5 7.0 7.3 7.0 7.1 6.9 7.7 7.5 6.0 5.0 4.9 6.1 5.2 3.6 3.4 3.1
3.0 2.5 2.5 2.7 1.7 0.3 -0.9 1.0 1.2 1.7 0.5 2.4 4.5 4.8 5.9 7.0 6.7 4.8 4.2 3.5 3.5 3.9 4.2 4.5 4.8 4.7 5.2 6.5 6.5 7.0 7.0 7.1 7.3 7.2 7.2 6.7 6.3 5.5 3.7 3.8 2.9 2.6 3.2 4.5
3.3 3.1 2.8 2.5 2.3 2.1 1.0 2.1 2.8 2.3 1.3 2.2 4.9 5.7 5.0 6.3 4.7 4.7 3.6 3.5 3.5 4.0 4.4 4.3 5.1 5.6 6.7 6.5 6.8 6.9 6.9 7.0 7.0 7.3 7.5 7.1 5.0 3.5 3.3 3.8 3.8 3.7 3.6 3.7
3.3 3.2 3.1 2.5 0.1 1.0 3.0 3.7 3.2 2.0 1.9 2.1 3.8 6.5 6.5 5.1 4.5 3.9 4.0 3.5 5.2 4.5 4.8 5.1 5.9 6.5 6.5 6.7 6.9 6.8 6.7 6.6 6.3 5.7 5.3 4.6 4.0 3.7 3.6 4.0 4.3 4.2 3.5 3.3
3.9 3.4 2.1 0.9 3.1 4.3 3.7 0.7 0.7 0.8 1.9 2.6 4.2 3.5 6.5 4.4 3.7 4.2 4.4 3.6 5.5 6.5 6.1 5.3 6.5 6.5 5.9 6.9 6.9 7.1 6.7 6.5 5.7 5.5 4.2 4.7 4.6 4.8 4.3 4.2 3.1 3.7 3.9 2.4
3.1 2.1 2.7 3.8 4.7 2.4 1.8 0.3 1.4 1.4 3.9 3.4 4.0 3.7 4.5 3.9 5.3 5.7 3.6 5.4 5.1 6.5 6.4 6.5 6.5 6.5 6.2 6.6 6.9 7.3 6.3 6.0 6.7 6.3 4.9 4.4 4.1 4.2 4.2 3.0 2.8 3.5 2.8 2.8
4.0 3.6 3.8 4.0 3.8 1.4 2.7 5.8 3.7 4.8 6.5 4.4 4.2 4.4 3.9 4.4 3.5 4.0 3.4 6.5 5.9 6.5 3.4 6.5 6.5 5.8 5.2 5.4 6.7 7.0 6.6 6.9 6.4 5.7 5.2 4.7 5.0 4.8 4.6 3.4 2.9 3.6 3.5 2.2
4.4 3.6 2.4 2.6 2.3 6.3 6.5 6.5 6.5 6.5 4.5 4.4 4.5 5.0 4.0 4.1 3.3 3.6 5.5 6.5 6.5 5.0 6.5 6.5 6.5 3.6 4.5 5.1 5.8 6.3 6.6 6.3 5.6 5.3 5.0 4.3 4.3 3.7 3.5 2.8 2.3 3.0 1.9 1.6
2.7 2.2 6.5 6.3 6.5 6.5 6.3 6.4 5.6 3.4 3.4 3.8 3.5 4.0 3.9 3.2 4.7 3.2 6.5 6.2 6.1 6.5 6.5 6.5 3.7 4.1 4.1 4.5 5.2 5.4 6.2 6.7 6.0 5.4 5.1 4.5 3.9 3.9 3.3 2.5 2.2 2.5 1.9 0.3
4.0 4.2 6.5 6.5 4.6 3.8 4.1 3.8 3.8 4.0 3.2 3.4 3.5 3.2 3.4 3.9 6.4 5.0 6.6 6.5 6.5 6.5 6.5 5.8 2.8 4.4 3.9 4.5 5.1 5.2 5.2 6.6 7.0 6.3 5.6 5.0 4.2 4.3 3.9 3.4 2.9 2.0 0.7 -1.0
4.8 5.7 5.3 4.8 4.0 3.0 3.0 3.5 4.1 3.7 3.7 3.3 3.2 5.1 6.4 6.5 6.5 6.5 6.5 6.5 6.5 6.5 4.2 3.1 3.8 5.0 4.5 4.2 4.7 5.3 4.3 5.2 6.8 7.3 6.7 6.1 5.3 4.9 4.8 3.9 3.4 2.3 1.8 -0.3
5.5 4.7 4.7 4.5 3.8 3.6 3.4 3.3 4.2 3.5 3.7 5.0 3.8 6.5 6.5 5.4 6.5 6.5 6.5 6.5 5.9 3.2 3.4 3.4 4.7 5.3 5.2 4.6 5.0 4.9 5.2 5.5 5.4 6.8 7.0 6.6 6.2 6.0 5.3 4.5 4.2 3.4 2.9 2.4
Wind_Speed
14 16 17 16 17 17 3 3 4 5 4 5 3 3 3 4 7 6 5 4 5 4 5 5 3 4 7 8 5 3 2 1 4 5 7 2 1 5 3 2 3 2 2 3
15 17 17 16 14 9 3 3 0 3 5 4 3 4 6 6 6 6 3 5 6 5 4 3 4 4 3 9 9 5 5 2 4 8 5 6 4 6 6 1 1 2 1 4
16 18 19 18 13 3 3 3 3 5 6 3 7 6 4 4 4 7 5 5 6 6 5 4 4 6 5 6 7 7 4 2 4 4 6 5 7 17 10 3 2 2 3 4
16 19 21 20 16 1 4 3 1 3 2 5 6 6 4 4 3 5 10 4 6 4 3 6 3 5 6 5 8 6 3 3 3 10 12 10 13 11 10 6 5 2 4 2
18 20 22 22 16 9 4 4 5 4 3 3 9 6 4 4 3 5 4 4 6 5 3 2 3 4 2 2 6 5 6 3 5 4 3 4 7 12 15 11 9 3 4 2
19 21 23 24 20 7 3 1 2 5 5 3 5 3 3 3 4 5 6 4 3 4 2 5 9 9 6 4 3 5 5 4 4 4 10 5 4 12 16 9 10 4 2 4
18 22 24 27 26 12 4 0 4 5 3 4 4 6 4 5 4 5 3 6 4 4 6 8 3 5 6 4 7 2 4 5 2 4 7 4 4 12 13 13 21 24 18 8
18 22 24 26 24 23 4 2 4 4 4 3 7 7 6 4 4 4 3 4 2 7 5 5 3 3 2 1 4 1 2 2 3 2 2 3 3 9 11 8 11 21 20 7
20 22 24 26 20 12 5 4 2 5 6 4 5 5 4 3 2 3 3 4 5 7 3 3 3 1 4 3 5 2 4 2 2 3 2 4 2 16 20 11 4 22 20 18
20 22 23 25 21 18 8 3 5 5 5 5 3 4 3 2 3 2 3 6 8 5 4 4 3 2 4 2 4 5 3 4 1 3 2 2 7 22 15 5 6 21 20 17
21 24 27 28 24 21 8 1 11 5 4 5 7 5 4 4 4 3 4 4 5 4 4 3 2 3 2 3 4 2 4 4 2 3 2 2 13 12 5 5 12 15 17 15
22 26 28 29 25 19 10 5 11 12 6 5 2 5 5 6 3 4 5 4 1 2 3 2 1 2 3 2 2 4 2 1 2 1 3 4 8 9 11 9 10 14 17 18
23 26 28 29 27 24 16 4 3 4 7 4 5 5 6 7 5 1 4 3 0 2 3 3 1 2 2 1 3 4 6 2 2 4 3 11 15 12 5 9 14 17 14 14
21 23 24 27 28 29 22 4 6 3 4 4 3 1 4 4 7 8 5 4 5 3 3 2 2 0 1 1 3 1 3 5 5 5 5 16 5 7 12 19 19 18 17 16
19 18 16 17 17 22 23 14 11 10 4 4 3 1 1 4 5 7 7 6 4 3 3 2 1 2 2 2 1 1 3 4 3 3 7 5 15 17 18 19 20 19 15 15
19 19 14 10 7 6 4 4 6 19 3 4 3 3 2 2 3 7 5 3 3 2 2 1 3 3 2 1 2 1 9 10 8 6 12 17 21 20 22 16 16 20 15 13
20 23 27 33 26 15 4 4 3 16 2 3 3 2 2 3 3 2 3 4 2 3 1 2 1 3 2 1 2 5 12 13 14 13 12 13 9 7 19 18 21 18 12 7
14 14 14 15 14 10 5 8 14 11 4 3 3 1 2 3 1 1 1 2 2 3 0 2 2 3 1 2 6 14 13 16 13 8 9 14 16 17 18 15 14 6 9 8
9 7 6 7 6 4 2 15 14 5 3 3 3 4 3 1 1 2 3 2 3 1 2 2 2 3 2 6 13 15 18 12 16 16 12 12 12 15 15 13 10 5 5 7
5 4 4 3 2 4 7 6 4 5 4 3 3 1 2 3 1 2 2 2 2 1 2 1 3 2 5 6 9 13 16 15 13 6 5 3 5 6 10 9 8 3 4 6
3 3 2 2 2 3 3 3 4 2 4 1 1 2 3 2 3 1 1 2 0 2 3 2 2 2 5 9 9 17 19 19 16 13 5 7 6 6 8 9 8 2 7 6
4 6 5 2 3 3 6 1 3 2 3 1 4 2 3 0 3 3 2 2 2 2 1 3 3 4 5 8 9 15 19 20 18 15 12 9 7 5 5 6 6 4 5 7
3 4 4 3 3 7 4 2 1 1 2 2 2 2 3 2 3 2 2 2 3 1 3 1 4 4 6 6 5 9 18 22 20 18 15 11 9 8 7 7 6 6 7 5
3 3 4 3 2 2 3 3 4 4 4 4 3 2 3 1 2 2 2 2 1 3 2 3 3 5 6 5 5 4 12 20 19 18 16 13 9 8 7 7 6 6 6 5
3 3 3 2 3 2 3 2 3 2 4 4 3 3 3 1 3 1 2 3 0 2 4 3 4 5 5 5 5 1 7 11 15 16 15 14 10 9 8 7 6 6 5 5
2 2 3 1 3 3 3 3 2 0 2 2 3 3 2 1 3 2 3 1 2 3 3 3 2 2 4 5 6 3 3 6 10 14 14 14 11 7 5 7 8 7 5 5
2 2 1 2 1 3 2 2 2 0 3 2 3 2 3 1 2 1 2 1 3 3 2 2 2 2 1 5 3 6 5 2 7 9 14 12 10 6 7 7 7 7 7 6
Wind_Direction
343 344 348 350 348 352 116 92 49 309 43 52 40 60 95 110 8 9 69 70 51 15 347 24 65 68 27 1 318 10 323 184 291 278 283 158 220 42 105 97 294 219 229 267
348 348 350 350 355 6 110 97 248 330 78 102 48 58 61 69 31 14 66 40 37 11 35 68 31 47 23 0 32 11 329 335 337 346 1 356 353 351 9 145 116 224 191 278
358 352 348 350 347 357 99 81 52 346 33 70 106 111 74 98 22 47 51 53 48 19 19 5 9 23 357 346 22 19 15 295 180 212 245 270 305 306 322 232 227 209 237 288
3 358 353 350 356 151 103 47 201 184 66 10 77 83 76 69 55 8 30 58 32 21 351 353 44 13 340 338 6 1 59 283 275 281 270 270 263 313 343 322 201 212 313 218
9 3 2 1 17 125 78 118 122 25 109 70 62 36 35 73 68 35 40 60 337 12 88 118 291 28 319 301 331 341 356 291 319 302 286 281 73 355 17 61 48 14 323 279
16 9 11 10 23 107 106 316 60 99 338 47 71 348 110 53 110 51 59 60 19 358 245 255 248 206 237 257 337 314 348 323 340 285 324 335 63 357 353 54 35 302 291 221
23 17 15 19 35 81 108 179 100 83 24 80 98 100 86 84 56 110 48 41 28 274 298 286 248 175 215 236 263 238 316 327 301 294 326 57 331 347 347 327 28 15 11 123
28 24 22 31 45 60 84 28 94 105 92 79 75 86 104 75 44 75 79 4 266 298 334 6 32 44 106 151 237 258 118 354 328 17 301 202 347 355 339 349 7 8 358 16
32 28 28 40 47 63 84 45 58 95 120 338 280 89 68 108 59 22 16 338 339 20 35 28 59 78 2 38 335 66 85 51 114 326 322 18 324 323 323 304 337 345 351 341
34 33 33 46 50 59 86 50 23 84 100 350 49 84 120 92 84 96 354 344 353 24 20 49 44 336 348 10 349 333 349 339 31 308 315 287 344 330 317 65 322 316 334 326
41 37 42 45 48 50 75 15 21 108 99 26 40 37 62 46 54 105 280 36 358 18 52 62 305 48 317 21 308 30 354 345 348 328 324 357 6 340 45 308 296 320 325 322
49 48 45 44 50 52 72 58 23 71 83 131 93 80 78 91 151 131 21 150 152 164 77 30 29 352 9 9 299 355 38 182 276 169 260 276 298 293 295 299 310 315 321 323
58 58 53 44 56 67 86 91 10 58 95 50 46 44 22 41 32 174 111 343 246 38 164 156 178 28 108 359 303 7 332 335 306 334 205 332 309 311 312 316 310 313 316 310
64 62 57 56 60 65 73 71 348 72 106 96 334 15 42 56 39 48 78 129 46 85 62 79 83 126 115 265 269 299 254 344 312 277 349 328 305 312 320 319 319 321 326 327
63 63 63 64 72 77 80 81 49 37 117 133 152 45 57 87 77 66 55 70 67 48 42 51 257 267 11 316 303 255 317 357 339 284 321 280 277 298 310 311 308 306 314 319
66 56 69 76 80 72 51 46 8 12 28 96 95 261 143 160 112 75 83 64 57 82 96 320 314 275 77 350 268 80 348 313 304 291 304 286 280 290 292 291 296 296 291 285
76 70 74 72 69 68 73 149 261 336 351 85 84 37 265 166 105 55 47 32 58 88 47 5 274 299 84 274 247 267 307 309 302 288 293 284 281 285 305 296 293 293 275 162
86 77 73 78 88 81 29 353 1 1 82 71 100 356 33 151 142 59 98 60 36 21 165 326 287 320 54 280 292 313 319 314 296 283 269 275 284 290 290 300 311 337 128 124
77 52 55 54 39 45 294 330 341 30 105 108 85 131 201 108 126 103 27 98 49 293 13 286 37 335 357 301 326 326 320 309 288 289 280 272 269 280 293 305 324 15 113 129
36 46 41 33 330 332 349 7 23 14 348 36 86 139 105 111 36 44 85 33 165 27 262 0 17 290 290 309 322 328 327 327 330 316 310 279 285 302 324 313 321 269 138 127
49 63 93 222 349 50 37 34 69 325 29 25 188 114 111 337 94 148 132 177 247 27 271 103 338 307 313 321 323 344 345 351 348 1 296 274 260 294 301 334 352 52 126 146
176 125 114 70 39 41 77 334 334 44 175 198 123 183 143 261 101 87 338 100 38 251 176 72 350 264 299 328 332 355 349 349 354 3 2 359 17 0 0 351 357 12 111 129
41 54 59 58 322 50 102 163 298 109 175 156 111 94 122 35 59 63 72 80 234 64 42 304 230 277 295 320 322 8 357 352 358 360 2 359 4 16 22 4 10 65 68 72
82 93 49 109 322 206 182 188 173 223 120 117 119 97 133 146 69 141 95 244 90 59 52 268 260 268 284 313 324 352 28 352 351 356 353 356 2 5 9 22 27 50 57 51
90 93 119 174 232 224 230 145 88 43 123 88 53 42 87 27 89 51 58 17 50 148 208 230 247 269 281 296 314 339 55 11 352 347 350 348 354 14 15 12 23 51 51 57
54 93 68 12 82 347 30 89 97 337 89 77 61 77 68 212 148 131 206 170 194 228 218 238 247 259 279 292 283 4 165 89 2 348 348 347 348 9 359 13 27 30 46 66
30 18 24 138 146 145 166 132 168 148 79 112 99 96 200 55 84 274 89 297 218 206 251 296 246 174 34 17 303 308 341 21 82 350 340 341 331 7 19 19 13 27 28 47